Location: Henau
(47.4548°N, 9.1164°E)
Time: 08:02:44
(UTC+00:00)

Cosmos 2278 Rocket - Pass Details

Date: 03 March 2021
Orbit: 841 x 845 km, 71.0° (Epoch: 11 April)

Event Time Altitude Azimuth Distance (km) Brightness Sun altitude
Rises 18:40:02 0° 337° (NNW) 3,416 5.8 -15.7°
Reaches altitude 10° 18:42:57 10° 351° (N) 2,477 4.8 -16.2°
Maximum altitude 18:47:35 25° 46° (NE) 1,644 3.4 -17.0°
Enters shadow 18:48:56 23° 68° (ENE) 1,729 3.3 -17.2°
